Regional Weather Roundup
Issued by NWS

Home | Current Version | Previous Version | Graphics & Text | Print | Product List | Glossary On
Versions: 1 2 3 4 5 6 7 8 9 10 11 12 13 14 15 16 17 18 19 20 21 22 23 24 25 26 27 28 29 30 31 32 33 34 35 36 37 38 39 40 41 42 43 44 45 46 47 48 49 50
000
ASUS43 KLSX 222207
RWRMO

WEATHER SUMMARY FOR MISSOURI
NATIONAL WEATHER SERVICE SPRINGFIELD MO
500 PM CDT MON MAY 22 2017

NOTE: "FAIR" INDICATES FEW OR NO CLOUDS BELOW 12,000 FEET WITH NO
       SIGNIFICANT WEATHER AND/OR OBSTRUCTIONS TO VISIBILITY.
       CURRENT SKY AND/OR WEATHER CONDITIONS ARE NOT AVAILABLE FOR
       CHILLICOTHE AND FARMINGTON.

MOZ001>031-035>038-043-044-053-054-222300-
...NORTHERN AND WESTERN MISSOURI...

CITY           SKY/WX    TMP DP  RH WIND       PRES   REMARKS
KANSAS CTY INT CLOUDY    59  57  93 N6        29.98S
KANSAS C DTWN  TSTM      61  57  87 NE5       29.98F
LEE`S SUMMIT   CLOUDY    64  52  64 NW14      29.98R
ST JOSEPH      LGT RAIN  60  57  89 CALM      29.97F
CHILLICOTHE      N/A     62  59  90 VRB6      29.98F
KIRKSVILLE     CLOUDY    63  58  83 SW9       29.97F

$$
MOZ066>068-077>081-088>096-101>105-222300-
...SOUTHWEST MISSOURI...

CITY           SKY/WX    TMP DP  RH WIND       PRES   REMARKS
SPRINGFIELD    PTSUNNY   73  50  44 S7        29.97F
JOPLIN         MOSUNNY   75  55  49 SW13      29.96F
BRANSON        PTSUNNY   73  45  35 SE6       30.00F

$$
MOZ032>034-039>042-045>050-055>058-069>072-222300-
...CENTRAL MISSOURI...

CITY           SKY/WX    TMP DP  RH WIND       PRES   REMARKS
COLUMBIA       PTSUNNY   71  53  52 W6        29.97F
ROLLA          CLOUDY    69  56  62 S6        29.98F
SEDALIA        CLOUDY    72  58  61 S8        29.97F
WHITEMAN AFB   CLOUDY    71  58  64 SW7       29.95F
WARRENSBURG    CLOUDY    70  54  56 S8        29.95F

$$
MOZ051-052-059>065-222300-
...EAST CENTRAL MISSOURI...

CITY           SKY/WX    TMP DP  RH WIND       PRES   REMARKS
ST LOUIS INTL  PTSUNNY   78  44  29 SW8       29.99F
SPIRIT OF STL  PTSUNNY   77  49  37 MISG      29.97F
ST CHARLES     MOSUNNY   76  46  34 W10       29.97F

$$
MOZ072>076-082>087-097>100-106>115-222300-
...SOUTH CENTRAL AND SOUTHEAST MISSOURI...

CITY           SKY/WX    TMP DP  RH WIND       PRES   REMARKS
CAPE GIRARDEAU CLOUDY    75  43  31 CALM      29.99F
FARMINGTON     SUNNY     74  49  41 S7        30.01F
POPLAR BLUFF   CLOUDY    75  49  39 VRB3      29.99F
WEST PLAINS    SUNNY     73  49  42 VRB5      30.01F

$$



USA.gov is the U.S. government's official web portal to all federal, state and local government web resources and services.